| time (UTC) | temp C | wind direction | speed KPH | gust KPH | rain 1hr cm | rain 24hr cm | rain mn cm | humidity % | barometer mb |
| 20260504090122 | 7 | 0 | 0.0 | 1.6 | 0.00 | 0.00 | 0.00 | 74 | 1016.9 |
| 20260504081555 | 7 | 0 | 0.0 | 1.6 | 0.00 | 0.00 | 0.00 | 75 | 1017.0 |
| 20260504044602 | 11 | 0 | 0.0 | 3.2 | 0.00 | 0.00 | 0.00 | 63 | 1017.5 |
| 20260504043058 | 11 | 0 | 0.0 | 3.2 | 0.00 | 0.00 | 0.00 | 59 | 1017.4 |
| 20260504041557 | 12 | 0 | 0.0 | 3.2 | 0.00 | 0.00 | 0.00 | 57 | 1017.5 |
| 20260504040107 | 12 | 0 | 0.0 | 8.0 | 0.00 | 0.00 | 0.00 | 56 | 1017.6 |
| 20260504034629 | 12 | 0 | 0.0 | 8.0 | 0.00 | 0.00 | 0.00 | 57 | 1017.7 |
| 20260504033058 | 12 | 0 | 0.0 | 3.2 | 0.00 | 0.00 | 0.00 | 58 | 1017.8 |
| 20260504031552 | 12 | 0 | 0.0 | 4.8 | 0.00 | 0.00 | 0.00 | 58 | 1017.7 |
| 20260504030119 | 12 | 182 | 1.6 | 8.0 | 0.00 | 0.00 | 0.00 | 57 | 1017.6 |
| 20260504024558 | 12 | 193 | 1.6 | 6.4 | 0.00 | 0.00 | 0.00 | 56 | 1017.7 |
| 20260504023057 | 12 | 242 | 0.0 | 8.0 | 0.00 | 0.00 | 0.00 | 55 | 1017.5 |
| 20260504021554 | 13 | 213 | 0.0 | 3.2 | 0.00 | 0.00 | 0.00 | 54 | 1017.5 |
| 20260504020107 | 13 | 151 | 0.0 | 4.8 | 0.00 | 0.00 | 0.00 | 52 | 1017.2 |
| 20260504014601 | 14 | 192 | 0.0 | 9.7 | 0.00 | 0.00 | 0.00 | 50 | 1017.1 |
| 20260504013056 | 14 | 186 | 3.2 | 9.7 | 0.00 | 0.00 | 0.00 | 49 | 1016.9 |
| 20260504011553 | 15 | 166 | 3.2 | 12.9 | 0.00 | 0.00 | 0.00 | 47 | 1016.6 |
| 20260504010054 | 15 | 173 | 3.2 | 11.3 | 0.00 | 0.00 | 0.00 | 45 | 1016.6 |
| 20260504004553 | 15 | 150 | 1.6 | 16.1 | 0.00 | 0.00 | 0.00 | 44 | 1016.5 |
| 20260504003055 | 16 | 182 | 4.8 | 16.1 | 0.00 | 0.00 | 0.00 | 43 | 1016.3 |
| 20260504001604 | 16 | 187 | 4.8 | 14.5 | 0.00 | 0.00 | 0.00 | 41 | 1016.2 |
| 20260504000058 | 17 | 0 | 6.4 | 14.5 | 0.00 | 0.00 | 0.00 | 40 | 1016.0 |
| 20260503234554 | 18 | 162 | 4.8 | 12.9 | 0.00 | 0.00 | 0.00 | 37 | 1016.0 |
| 20260503233053 | 18 | 135 | 4.8 | 17.7 | 0.00 | 0.00 | 0.00 | 37 | 1015.9 |
| 20260503231553 | 18 | 166 | 6.4 | 20.9 | 0.00 | 0.00 | 0.00 | 38 | 1015.9 |
| 20260503230054 | 19 | 167 | 4.8 | 14.5 | 0.00 | 0.00 | 0.00 | 38 | 1016.0 |
| 20260503224554 | 20 | 123 | 4.8 | 24.1 | 0.00 | 0.00 | 0.00 | 38 | 1016.0 |
| 20260503223052 | 20 | 143 | 8.0 | 17.7 | 0.00 | 0.00 | 0.00 | 35 | 1016.0 |
| 20260503221553 | 20 | 180 | 4.8 | 16.1 | 0.00 | 0.00 | 0.00 | 34 | 1016.1 |
| 20260503220056 | 20 | 128 | 3.2 | 12.9 | 0.00 | 0.00 | 0.00 | 36 | 1016.1 |
| 20260503214601 | 20 | 153 | 4.8 | 17.7 | 0.00 | 0.00 | 0.00 | 35 | 1016.1 |
| 20260503213052 | 20 | 15 | 6.4 | 12.9 | 0.00 | 0.00 | 0.00 | 35 | 1016.1 |
| 20260503211556 | 20 | 210 | 8.0 | 19.3 | 0.00 | 0.00 | 0.00 | 35 | 1016.3 |
| 20260503210052 | 19 | 157 | 8.0 | 19.3 | 0.00 | 0.00 | 0.00 | 36 | 1016.3 |
| 20260503204557 | 20 | 211 | 4.8 | 14.5 | 0.00 | 0.00 | 0.00 | 35 | 1016.5 |
| 20260503203053 | 20 | 173 | 8.0 | 16.1 | 0.00 | 0.00 | 0.00 | 36 | 1016.7 |
| 20260503201556 | 19 | 210 | 8.0 | 17.7 | 0.00 | 0.00 | 0.00 | 36 | 1016.9 |
| 20260503200053 | 20 | 130 | 8.0 | 17.7 | 0.00 | 0.00 | 0.00 | 34 | 1017.3 |
| 20260503194553 | 19 | 91 | 3.2 | 17.7 | 0.00 | 0.00 | 0.00 | 33 | 1017.5 |
| 20260503193108 | 19 | 148 | 4.8 | 20.9 | 0.00 | 0.00 | 0.00 | 34 | 1017.9 |
| 20260503191554 | 19 | 155 | 3.2 | 17.7 | 0.00 | 0.00 | 0.00 | 34 | 1018.1 |
| 20260503190106 | 19 | 169 | 6.4 | 17.7 | 0.00 | 0.00 | 0.00 | 35 | 1018.3 |
| 20260503184552 | 18 | 142 | 3.2 | 16.1 | 0.00 | 0.00 | 0.00 | 35 | 1018.4 |
| 20260503183104 | 18 | 0 | 3.2 | 11.3 | 0.00 | 0.00 | 0.00 | 36 | 1018.5 |
| 20260503181551 | 18 | 231 | 8.0 | 22.5 | 0.00 | 0.00 | 0.00 | 36 | 1018.6 |
| 20260503180058 | 18 | 88 | 3.2 | 12.9 | 0.00 | 0.00 | 0.00 | 38 | 1018.6 |
| 20260503174554 | 17 | 105 | 1.6 | 12.9 | 0.00 | 0.00 | 0.00 | 38 | 1018.7 |
| 20260503173111 | 17 | 157 | 6.4 | 17.7 | 0.00 | 0.00 | 0.00 | 37 | 1018.9 |
| 20260503171553 | 17 | 338 | 4.8 | 16.1 | 0.00 | 0.00 | 0.00 | 41 | 1018.9 |